Theta_e
312 315 317 317 316 317 317 316 317 315 313 313 316 316 314 308 307 306 304 303 302 300 297 296 297 298 299 299 301 302 304 302 302 302 300 297 293 293 291 291 291 293 294 294
312 316 317 313 314 314 314 316 317 314 311 312 315 314 314 308 308 306 304 303 301 299 298 296 296 297 297 297 297 298 300 299 298 297 295 293 291 290 289 289 289 289 290 290
317 316 313 312 311 312 314 315 316 316 313 312 313 317 313 305 303 302 301 300 300 299 297 295 294 295 295 295 295 295 295 294 293 292 291 291 290 290 289 289 288 287 287 287
314 312 311 311 312 312 316 312 313 314 315 321 313 324 317 310 306 302 301 300 299 297 295 293 293 293 292 292 292 292 292 291 291 291 291 291 290 289 288 288 287 287 287 286
316 312 313 314 313 311 315 312 313 313 316 316 316 320 320 307 308 304 301 300 298 296 294 293 291 290 289 290 290 290 289 289 289 290 290 290 289 288 288 288 287 287 286 285
314 309 312 313 310 312 310 311 311 311 314 320 319 318 323 312 311 306 302 300 298 295 293 291 290 289 289 289 289 289 289 289 289 289 289 289 289 288 288 288 288 287 286 285
316 314 310 309 314 309 312 315 323 321 319 324 311 317 320 312 308 306 302 300 297 295 293 291 289 289 288 289 289 289 289 288 288 288 288 288 288 288 287 287 287 287 286 285
322 324 314 310 317 317 313 318 325 329 322 320 310 316 316 306 304 305 302 300 297 295 293 291 290 289 288 288 288 288 288 288 288 287 287 287 287 287 287 286 286 285 284 283
321 322 311 307 308 314 312 313 314 313 306 318 318 315 308 304 304 303 301 299 297 295 293 292 290 289 288 288 288 288 288 287 287 287 287 287 287 287 286 286 285 284 283 282
317 322 310 308 308 308 311 312 316 315 322 324 318 316 318 308 306 303 301 299 297 295 293 292 290 289 288 288 288 288 287 287 287 287 287 286 286 286 286 285 284 283 282 282
313 316 312 309 311 314 311 312 312 314 316 323 322 318 311 312 308 304 302 300 298 296 294 292 290 289 288 288 287 288 288 287 287 286 286 286 286 286 285 284 282 281 280 279
314 315 318 313 308 306 312 313 313 319 316 314 316 319 305 307 307 304 303 300 298 296 294 293 291 289 288 288 288 288 287 287 286 286 286 286 286 284 282 280 279 279 278 278
313 317 323 320 310 308 310 310 312 315 315 319 321 319 304 304 305 303 303 301 299 296 295 294 291 289 288 288 288 288 287 286 286 286 286 284 282 280 279 279 278 278 278 278
311 317 322 326 321 315 314 312 310 314 319 319 317 317 307 306 305 304 303 302 300 297 295 294 291 289 289 288 288 287 286 286 285 285 283 281 281 280 279 279 279 278 278 277
312 317 317 318 309 309 311 313 311 313 314 318 318 314 311 309 307 305 303 302 300 297 295 294 293 290 289 288 287 286 285 284 285 282 281 281 280 280 279 278 278 277 276 275
308 315 313 317 306 307 311 309 311 311 312 313 310 311 309 308 305 306 303 301 299 297 295 294 292 290 289 288 287 285 284 284 283 281 281 280 279 279 279 278 277 276 275 274
308 310 314 318 303 308 314 313 309 309 309 310 311 313 304 303 304 305 303 300 299 298 296 294 292 290 288 287 285 285 284 283 282 281 280 279 279 279 278 277 276 275 274 273
308 311 312 306 304 315 306 295 303 310 310 307 306 305 304 306 303 301 302 300 299 298 296 294 292 290 288 287 286 285 283 282 281 280 279 278 279 279 277 276 274 273 272 271
298 306 302 308 309 307 307 295 296 304 308 305 306 305 300 293 294 297 295 297 299 297 295 293 290 288 287 286 285 284 283 281 280 279 278 278 279 277 275 274 273 272 270 269
298 300 310 302 310 312 309 294 290 298 305 299 304 304 297 292 302 303 291 291 290 289 288 288 288 287 286 285 286 284 282 280 279 279 278 278 277 275 274 272 271 271 270 269
301 301 307 304 309 308 300 291 290 303 307 291 296 297 293 296 299 293 289 288 288 288 287 287 286 286 286 286 285 282 281 280 280 278 278 276 275 274 273 272 271 270 269 268
303 304 304 305 306 308 290 289 298 299 290 291 291 293 292 292 289 289 288 287 287 286 286 285 285 285 285 285 284 281 280 279 278 278 276 275 274 273 272 271 270 269 269 267
301 302 304 303 305 291 291 294 292 291 292 290 291 291 291 290 288 288 287 287 286 285 285 285 285 284 283 283 283 281 280 279 278 277 275 274 273 272 271 270 269 268 267 266
290 289 296 297 293 291 290 290 289 290 290 289 289 290 289 290 289 287 286 285 284 284 284 284 284 282 281 281 282 281 280 278 277 276 274 273 271 271 270 269 268 267 266 266
292 290 290 290 288 289 290 290 291 289 288 287 287 287 289 289 288 287 286 285 285 284 284 284 283 282 282 281 280 279 278 277 276 273 272 270 270 269 269 268 268 266 266 265
288 289 291 294 291 293 293 293 291 289 288 288 288 287 286 287 288 286 286 285 284 283 283 282 282 282 281 280 279 278 277 276 274 272 270 269 268 268 267 266 266 267 265 266
Wind_Speed
4 8 13 23 20 9 4 7 8 5 2 4 13 14 12 7 6 7 6 5 5 5 6 7 8 9 12 17 21 22 26 25 30 31 30 29 28 23 23 23 23 24 23 22
5 16 17 1 11 12 9 11 14 7 5 5 12 16 11 9 7 8 8 8 8 8 8 9 9 10 13 14 16 19 20 18 16 17 19 20 22 23 23 23 26 26 26 25
16 5 9 10 8 12 14 16 13 10 1 6 7 16 12 5 5 7 7 8 9 10 10 10 12 13 14 16 16 18 20 22 23 25 28 26 24 21 20 21 22 23 24 24
13 5 7 10 11 13 15 13 10 9 5 10 4 8 6 9 9 11 11 12 11 11 9 11 13 15 16 16 17 18 19 22 20 19 21 21 21 22 19 19 18 20 21 23
6 9 11 10 8 14 5 6 8 7 10 7 8 7 3 6 12 14 14 14 13 12 11 12 14 15 16 17 19 21 23 25 24 23 23 23 23 19 17 16 16 16 19 21
7 1 5 5 3 5 13 8 5 2 3 8 16 13 6 7 9 17 17 16 15 14 12 13 13 13 15 16 18 20 22 22 21 21 21 23 22 18 16 14 14 13 13 14
11 10 4 4 6 3 6 10 2 5 5 7 0 11 11 4 7 18 23 20 18 16 15 14 16 16 15 16 17 19 20 21 19 20 19 19 19 18 16 13 11 10 10 10
11 8 16 15 19 10 17 13 6 6 6 2 3 8 5 3 4 10 20 20 18 17 15 15 18 17 17 17 17 20 20 20 18 18 17 15 14 13 13 12 10 8 8 9
9 8 4 3 4 14 8 10 2 4 1 2 6 4 4 4 6 12 21 21 20 19 17 16 20 19 19 18 18 19 19 18 17 16 15 12 9 11 11 10 11 10 12 13
6 5 2 5 4 1 7 11 5 5 5 6 4 6 8 10 13 16 21 22 22 20 18 18 21 21 20 20 18 17 16 16 15 13 12 10 9 11 9 7 10 9 10 12
6 5 3 6 12 17 7 7 5 3 5 4 3 4 3 10 18 22 22 23 23 22 20 18 22 22 21 20 19 18 16 14 12 11 10 9 7 7 4 5 5 6 7 9
10 1 6 11 1 2 11 11 16 7 6 5 3 5 2 2 13 18 21 23 22 21 19 22 24 25 24 22 20 18 16 15 12 12 11 9 5 3 2 3 3 5 8 11
11 6 3 2 3 3 9 12 15 13 2 11 7 5 1 2 10 15 18 21 20 20 20 19 24 25 25 23 21 19 16 15 14 13 10 9 6 3 2 3 5 8 11 14
3 5 11 14 3 5 9 15 16 15 10 12 17 7 6 7 11 15 16 19 23 21 21 19 19 25 26 23 22 19 16 15 16 13 11 8 5 1 1 4 8 11 14 15
7 9 15 15 3 2 3 14 19 21 28 16 18 18 14 16 16 19 18 17 20 21 21 21 19 23 26 24 22 19 17 17 17 14 11 8 4 1 3 7 10 13 14 15
5 4 8 12 2 1 2 7 18 21 20 17 9 9 4 8 6 10 16 19 21 21 24 21 20 25 26 26 24 21 21 20 18 14 11 8 4 1 5 8 12 14 16 17
8 6 6 4 2 4 6 17 13 10 12 14 14 9 6 6 12 14 15 19 21 22 22 22 21 26 25 27 27 25 23 22 18 14 11 7 3 3 6 10 13 16 16 17
5 7 2 3 3 6 2 1 4 14 8 10 3 3 7 7 7 6 9 17 15 15 18 17 22 23 24 25 24 22 24 22 18 15 11 7 4 5 8 11 14 16 16 17
5 2 3 4 4 5 2 6 7 7 8 12 15 7 3 2 1 5 7 9 13 14 16 20 23 25 26 29 28 29 25 21 19 15 12 8 6 6 8 11 13 14 16 17
1 3 2 2 3 7 2 2 3 2 7 8 13 8 8 8 6 6 8 7 7 12 15 19 22 23 25 26 30 32 28 23 19 16 13 9 7 7 8 10 13 15 17 18
3 2 6 5 5 5 3 6 5 6 3 3 5 6 9 5 1 2 9 6 8 13 17 21 25 27 29 30 32 30 26 22 20 17 13 10 8 7 9 11 13 15 16 17
8 9 5 4 5 9 8 6 8 2 1 4 4 7 10 5 5 4 8 10 13 15 16 21 23 25 27 29 31 28 27 23 20 16 13 11 9 8 9 11 12 13 15 15
4 5 5 7 3 2 12 2 5 2 4 5 5 7 9 7 6 7 7 9 11 16 18 24 25 24 22 28 32 29 27 24 21 17 14 12 10 9 10 10 11 12 12 11
4 2 2 2 2 3 10 3 3 4 2 3 1 8 10 10 8 7 5 6 9 17 20 26 23 22 23 27 31 29 26 24 21 18 16 14 11 10 9 9 10 10 9 9
1 8 5 1 3 4 7 11 8 5 4 4 4 5 11 6 5 8 8 9 15 20 22 27 26 26 28 29 31 28 26 25 23 20 17 14 12 10 9 9 10 10 10 10
5 6 5 4 8 5 5 12 10 9 8 9 8 6 4 8 9 8 9 14 17 18 21 24 27 25 27 29 32 30 29 27 25 20 17 14 11 9 8 8 10 12 13 12
Wind_Direction
174 201 213 214 213 240 236 216 210 209 186 238 245 253 208 184 183 187 185 172 142 98 77 67 66 75 82 90 97 105 113 114 114 110 102 94 84 82 78 74 71 71 70 66
170 228 229 232 206 207 218 238 243 268 238 224 262 253 227 198 215 206 183 169 153 133 106 88 85 87 89 93 95 100 105 110 105 102 100 99 96 87 83 79 74 72 71 70
217 200 213 193 177 197 224 231 238 253 152 231 279 264 220 185 170 164 168 153 146 136 124 109 99 97 98 92 95 100 102 101 100 104 105 100 93 87 78 70 68 64 66 65
241 201 155 192 210 198 230 213 231 245 244 262 199 284 207 196 185 185 170 167 153 142 129 121 116 108 103 99 101 100 100 101 102 103 102 104 101 96 90 85 79 70 64 60
206 175 194 198 205 191 243 149 206 227 240 270 210 261 159 173 211 195 180 171 162 153 146 138 126 118 112 111 108 106 106 105 105 105 104 100 97 95 95 89 82 76 66 60
270 50 202 207 95 191 133 102 88 114 215 252 231 218 213 204 218 180 177 175 169 163 156 142 130 124 116 114 111 108 104 98 97 98 99 102 105 104 96 83 74 63 56 50
222 225 190 177 157 88 176 154 189 226 208 250 275 211 256 221 187 185 175 175 176 169 165 159 154 146 135 125 117 113 110 104 103 100 97 97 99 98 91 87 74 66 55 41
206 231 196 191 215 188 194 194 197 221 207 210 137 225 235 129 140 174 176 173 170 173 173 170 165 156 148 141 134 128 122 117 113 108 104 102 103 101 97 93 85 64 49 35
198 239 176 205 152 173 180 213 203 100 53 262 209 227 213 151 153 164 172 172 178 181 179 176 171 166 160 153 147 142 135 129 127 123 119 113 104 106 92 71 57 35 21 11
194 243 204 156 135 166 196 147 180 216 222 232 219 253 232 199 185 175 180 184 182 182 181 180 177 173 168 161 154 149 143 140 137 132 125 114 105 82 63 42 36 11 358 351
158 226 125 154 208 186 171 189 206 210 217 221 260 230 205 200 187 186 189 188 185 184 183 181 182 178 172 167 162 158 154 148 145 136 125 117 104 82 46 23 22 356 356 354
197 190 207 203 89 334 233 219 191 201 186 238 303 247 189 204 190 187 189 190 188 186 184 184 182 179 177 174 171 168 165 152 157 147 139 128 121 101 70 44 23 359 351 347
171 191 174 227 207 177 219 207 218 233 42 203 188 224 297 181 180 189 188 189 188 187 188 187 185 184 181 180 176 176 171 161 165 158 152 144 156 131 80 29 350 344 341 339
233 173 197 223 206 144 200 207 201 203 222 210 229 215 193 183 188 190 192 192 190 189 189 189 188 188 186 184 180 178 173 168 170 167 161 154 162 142 3 349 337 335 336 332
196 224 218 245 327 307 241 193 196 208 222 217 242 228 197 192 193 197 195 190 189 192 193 194 189 186 186 184 182 178 174 173 176 175 167 168 175 183 342 336 332 331 331 327
183 228 188 240 135 300 258 224 210 219 230 239 245 237 156 196 180 187 192 190 194 198 197 190 186 185 186 185 182 177 179 180 182 177 172 178 176 317 324 324 325 327 325 323
168 158 181 184 144 161 249 215 203 203 217 217 219 233 155 179 206 213 201 195 200 201 193 189 187 184 182 183 180 183 181 183 182 179 183 188 200 293 308 316 320 322 321 320
199 160 174 134 168 211 345 78 232 221 219 222 304 232 193 221 216 227 202 203 206 198 191 187 180 180 182 182 183 178 183 182 182 185 191 200 228 282 301 312 319 319 317 316
11 126 123 168 222 349 229 204 191 175 222 198 210 209 173 91 102 246 215 210 199 187 180 176 169 169 174 181 181 186 181 184 187 190 198 210 235 266 292 308 312 311 312 315
72 27 224 165 197 213 248 165 207 143 263 202 197 181 158 148 203 228 175 172 148 147 154 157 166 171 169 176 188 188 186 188 191 197 205 214 234 266 290 301 310 315 317 315
152 162 211 197 217 261 194 159 167 162 251 140 162 133 147 194 223 93 136 141 150 157 160 163 165 167 176 181 186 186 189 194 198 200 204 213 236 264 290 303 310 313 314 311
171 168 194 188 214 247 147 120 183 169 87 145 162 176 179 168 142 138 147 153 161 157 150 161 161 173 182 187 191 190 197 198 197 199 205 218 239 267 282 292 300 306 310 314
219 208 177 202 210 334 192 34 194 168 152 192 185 177 162 140 166 163 166 166 163 159 162 175 174 178 185 194 201 197 200 197 196 199 209 220 237 254 270 285 297 308 311 311
238 175 201 128 165 239 216 244 256 204 191 159 167 154 162 173 172 179 157 162 166 175 182 186 185 184 191 199 204 211 201 199 200 202 211 221 231 244 262 280 291 294 295 293
140 145 149 277 261 296 249 238 235 187 129 118 132 157 185 162 177 179 188 193 191 190 193 196 194 198 204 206 207 205 202 203 200 205 210 217 227 240 258 273 277 279 279 272
190 160 179 205 202 191 211 222 216 185 194 197 172 169 190 186 195 187 202 205 188 192 196 198 207 208 211 212 211 205 205 205 203 203 209 216 221 236 254 269 284 279 270 274